Time,TemperatureF,DewpointF,PressureIn,WindDirection,WindDirectionDegrees,WindSpeedMPH,WindSpeedGustMPH,Humidity,HourlyPrecipIn,Conditions,Clouds,dailyrainin,SoftwareType,DateUTC
2013-06-04 00:03:00,69.0,69.0,30.12,SSW,200,2.0,3.0,99,0.00,,,0.06,,2013-06-04 04:03:00,
2013-06-04 00:13:00,69.0,69.0,30.12,SSW,200,2.0,3.0,99,0.00,,,0.06,,2013-06-04 04:13:00,
2013-06-04 00:23:00,70.0,69.0,30.12,South,191,0.0,1.0,97,0.00,,,0.07,,2013-06-04 04:23:00,
2013-06-04 00:33:00,70.0,69.0,30.12,NE,56,0.0,0.0,97,0.00,,,0.06,,2013-06-04 04:33:00,
2013-06-04 00:42:00,70.0,69.0,30.12,NE,56,0.0,0.0,97,0.00,,,0.06,,2013-06-04 04:42:00,
2013-06-04 00:53:00,70.0,69.0,30.13,North,352,1.0,2.0,98,0.00,,,0.06,,2013-06-04 04:53:00,
2013-06-04 01:02:00,70.0,69.0,30.13,NNE,14,0.0,0.0,98,0.00,,,0.06,,2013-06-04 05:02:00,
2013-06-04 01:12:00,70.0,69.0,30.13,NNE,14,0.0,0.0,98,0.00,,,0.06,,2013-06-04 05:12:00,
2013-06-04 01:22:00,69.0,68.0,30.13,North,11,0.0,0.0,98,0.00,,,0.06,,2013-06-04 05:22:00,
2013-06-04 01:32:00,69.0,69.0,30.12,NNE,15,1.0,2.0,99,0.00,,,0.06,,2013-06-04 05:32:00,
2013-06-04 01:42:00,69.0,69.0,30.12,NNE,15,1.0,2.0,99,0.00,,,0.06,,2013-06-04 05:42:00,
2013-06-04 01:52:00,69.0,69.0,30.11,WNW,285,0.0,0.0,100,0.00,,,0.06,,2013-06-04 05:52:00,
2013-06-04 02:02:00,69.0,69.0,30.10,SW,217,2.0,3.0,99,0.00,,,0.06,,2013-06-04 06:02:00,
2013-06-04 02:12:00,69.0,69.0,30.10,SW,217,2.0,3.0,99,0.00,,,0.06,,2013-06-04 06:12:00,
2013-06-04 02:22:00,69.0,68.0,30.11,SSE,162,0.0,1.0,96,0.00,,,0.06,,2013-06-04 06:22:00,
2013-06-04 02:32:00,69.0,68.0,30.11,SSW,205,1.0,3.0,96,0.00,,,0.06,,2013-06-04 06:32:00,
2013-06-04 02:42:00,69.0,68.0,30.11,SSW,205,1.0,3.0,96,0.00,,,0.06,,2013-06-04 06:42:00,
2013-06-04 02:52:00,69.0,68.0,30.12,West,281,1.0,1.0,98,0.00,,,0.06,,2013-06-04 06:52:00,
2013-06-04 03:02:00,69.0,68.0,30.11,West,269,0.0,0.0,98,0.00,,,0.06,,2013-06-04 07:02:00,
2013-06-04 03:12:00,69.0,68.0,30.11,West,269,0.0,0.0,98,0.00,,,0.06,,2013-06-04 07:12:00,
2013-06-04 03:22:00,68.0,68.0,30.11,West,262,0.0,0.0,99,0.00,,,0.06,,2013-06-04 07:22:00,
2013-06-04 03:32:00,67.0,67.0,30.11,ESE,121,0.0,0.0,100,0.00,,,0.06,,2013-06-04 07:32:00,
2013-06-04 03:42:00,67.0,67.0,30.11,ESE,121,0.0,0.0,100,0.00,,,0.06,,2013-06-04 07:42:00,
2013-06-04 03:52:00,67.0,67.0,30.11,ESE,121,0.0,0.0,100,0.00,,,0.06,,2013-06-04 07:52:00,
2013-06-04 04:02:00,66.0,66.0,30.10,ESE,104,1.0,2.0,100,0.00,,,0.06,,2013-06-04 08:02:00,
2013-06-04 04:12:00,66.0,66.0,30.10,ENE,68,0.0,1.0,100,0.00,,,0.06,,2013-06-04 08:12:00,
2013-06-04 04:22:00,66.0,66.0,30.10,ENE,68,0.0,1.0,100,0.00,,,0.06,,2013-06-04 08:22:00,
2013-06-04 04:32:00,65.0,65.0,30.10,West,281,2.0,2.0,100,0.00,,,0.06,,2013-06-04 08:32:00,
2013-06-04 04:42:00,65.0,65.0,30.10,West,281,2.0,2.0,100,0.00,,,0.06,,2013-06-04 08:42:00,
2013-06-04 04:52:00,65.0,65.0,30.10,West,281,0.0,1.0,100,0.00,,,0.06,,2013-06-04 08:52:00,
2013-06-04 05:02:00,64.0,64.0,30.11,SSW,197,1.0,1.0,100,0.00,,,0.06,,2013-06-04 09:02:00,
2013-06-04 05:12:00,64.0,64.0,30.11,SSW,197,1.0,1.0,100,0.00,,,0.06,,2013-06-04 09:12:00,
2013-06-04 05:22:00,64.0,64.0,30.11,WSW,253,0.0,0.0,100,0.00,,,0.06,,2013-06-04 09:22:00,
2013-06-04 05:33:00,64.0,64.0,30.12,West,259,0.0,0.0,100,0.00,,,0.06,,2013-06-04 09:33:00,
2013-06-04 05:43:00,64.0,64.0,30.12,West,259,0.0,0.0,100,0.00,,,0.06,,2013-06-04 09:43:00,
2013-06-04 05:53:00,64.0,64.0,30.12,East,84,0.0,0.0,100,0.00,,,0.06,,2013-06-04 09:53:00,
2013-06-04 06:02:00,63.0,63.0,30.13,East,84,0.0,0.0,100,0.00,,,0.06,,2013-06-04 10:02:00,
2013-06-04 06:12:00,63.0,63.0,30.13,East,84,0.0,0.0,100,0.00,,,0.06,,2013-06-04 10:12:00,
2013-06-04 06:23:00,63.0,63.0,30.14,East,84,0.0,0.0,100,0.00,,,0.05,,2013-06-04 10:23:00,
2013-06-04 06:33:00,63.0,63.0,30.14,East,84,0.0,0.0,100,0.00,,,0.05,,2013-06-04 10:33:00,
2013-06-04 06:42:00,62.0,62.0,30.14,East,84,0.0,0.0,100,0.00,,,0.05,,2013-06-04 10:42:00,
2013-06-04 06:53:00,62.0,62.0,30.14,East,84,0.0,0.0,100,0.00,,,0.05,,2013-06-04 10:53:00,
2013-06-04 07:02:00,62.0,62.0,30.15,East,84,0.0,0.0,100,0.00,,,0.05,,2013-06-04 11:02:00,
2013-06-04 07:12:00,62.0,62.0,30.15,East,84,0.0,0.0,100,0.00,,,0.05,,2013-06-04 11:12:00,
2013-06-04 07:22:00,63.0,63.0,30.16,West,277,1.0,2.0,100,0.00,,,0.05,,2013-06-04 11:22:00,
2013-06-04 07:32:00,63.0,63.0,30.16,West,260,0.0,0.0,100,0.00,,,0.05,,2013-06-04 11:32:00,
2013-06-04 07:42:00,63.0,63.0,30.16,West,260,0.0,0.0,100,0.00,,,0.05,,2013-06-04 11:42:00,
2013-06-04 07:52:00,64.0,64.0,30.16,South,188,0.0,0.0,100,0.00,,,0.05,,2013-06-04 11:52:00,
2013-06-04 08:02:00,64.0,64.0,30.16,South,188,0.0,0.0,100,0.00,,,0.05,,2013-06-04 12:02:00,
2013-06-04 08:12:00,64.0,64.0,30.16,South,188,0.0,0.0,100,0.00,,,0.05,,2013-06-04 12:12:00,
2013-06-04 08:22:00,65.0,65.0,30.16,South,170,0.0,0.0,100,0.00,,,0.06,,2013-06-04 12:22:00,
2013-06-04 08:32:00,65.0,65.0,30.17,South,170,0.0,0.0,100,0.00,,,0.09,,2013-06-04 12:32:00,
2013-06-04 08:42:00,65.0,65.0,30.17,South,170,0.0,0.0,100,0.00,,,0.09,,2013-06-04 12:42:00,
2013-06-04 08:52:00,66.0,66.0,30.17,South,170,0.0,0.0,100,0.00,,,0.38,,2013-06-04 12:52:00,
2013-06-04 09:03:00,67.0,67.0,30.18,South,170,0.0,0.0,100,0.00,,,0.38,,2013-06-04 13:03:00,
2013-06-04 09:12:00,67.0,67.0,30.18,South,170,0.0,0.0,100,0.00,,,0.38,,2013-06-04 13:12:00,
2013-06-04 09:22:00,69.0,69.0,30.19,WSW,252,0.0,0.0,99,0.00,,,0.38,,2013-06-04 13:22:00,
2013-06-04 09:32:00,70.0,68.0,30.19,SSW,208,2.0,4.0,95,0.00,,,0.38,,2013-06-04 13:32:00,
2013-06-04 09:42:00,70.0,68.0,30.19,SSW,208,2.0,4.0,95,0.00,,,0.38,,2013-06-04 13:42:00,
2013-06-04 09:52:00,71.0,69.0,30.20,SSW,211,0.0,0.0,92,0.00,,,0.38,,2013-06-04 13:52:00,
2013-06-04 10:02:00,72.0,68.0,30.19,ENE,75,2.0,3.0,88,0.00,,,0.38,,2013-06-04 14:02:00,
2013-06-04 10:12:00,72.0,68.0,30.19,ENE,75,2.0,3.0,88,0.00,,,0.38,,2013-06-04 14:12:00,
2013-06-04 10:22:00,73.0,69.0,30.19,SE,129,3.0,5.0,86,0.00,,,0.38,,2013-06-04 14:22:00,
2013-06-04 10:32:00,74.0,68.0,30.19,East,91,3.0,4.0,82,0.00,,,0.38,,2013-06-04 14:32:00,
2013-06-04 10:42:00,74.0,68.0,30.19,East,91,3.0,4.0,82,0.00,,,0.38,,2013-06-04 14:42:00,
2013-06-04 10:52:00,75.0,69.0,30.19,East,91,3.0,5.0,81,0.00,,,0.38,,2013-06-04 14:52:00,
2013-06-04 11:02:00,75.0,68.0,30.19,ENE,68,1.0,1.0,79,0.00,,,0.38,,2013-06-04 15:02:00,
2013-06-04 11:12:00,75.0,68.0,30.19,ENE,68,1.0,1.0,79,0.00,,,0.38,,2013-06-04 15:12:00,
2013-06-04 11:22:00,76.0,69.0,30.19,East,96,3.0,4.0,79,0.00,,,0.37,,2013-06-04 15:22:00,
2013-06-04 11:33:00,77.0,70.0,30.19,ESE,110,2.0,3.0,79,0.00,,,0.37,,2013-06-04 15:33:00,
2013-06-04 11:42:00,77.0,70.0,30.19,ESE,110,2.0,3.0,79,0.00,,,0.37,,2013-06-04 15:42:00,
2013-06-04 11:53:00,76.0,70.0,30.19,ENE,62,3.0,3.0,81,0.00,,,0.37,,2013-06-04 15:53:00,
2013-06-04 12:03:00,77.0,71.0,30.20,NNE,31,1.0,3.0,81,0.00,,,0.37,,2013-06-04 16:03:00,
2013-06-04 12:13:00,76.0,69.0,30.19,SE,124,2.0,3.0,80,0.00,,,0.37,,2013-06-04 16:13:00,
2013-06-04 12:23:00,76.0,69.0,30.19,SE,124,2.0,3.0,80,0.00,,,0.37,,2013-06-04 16:23:00,
2013-06-04 12:33:00,76.0,70.0,30.19,NW,312,1.0,2.0,81,0.00,,,0.37,,2013-06-04 16:33:00,
2013-06-04 12:42:00,76.0,70.0,30.19,NW,312,1.0,2.0,81,0.00,,,0.37,,2013-06-04 16:42:00,
2013-06-04 12:53:00,79.0,70.0,30.20,SSW,212,3.0,4.0,74,0.00,,,0.37,,2013-06-04 16:53:00,
2013-06-04 13:03:00,80.0,70.0,30.19,ENE,75,2.0,4.0,71,0.00,,,0.37,,2013-06-04 17:03:00,
2013-06-04 13:12:00,80.0,70.0,30.19,ENE,75,2.0,4.0,71,0.00,,,0.37,,2013-06-04 17:12:00,
2013-06-04 13:23:00,81.0,69.0,30.19,South,169,4.0,6.0,68,0.00,,,0.37,,2013-06-04 17:23:00,
2013-06-04 13:33:00,80.0,70.0,30.19,East,94,2.0,3.0,72,0.00,,,0.37,,2013-06-04 17:33:00,
2013-06-04 13:42:00,80.0,70.0,30.19,East,94,2.0,3.0,72,0.00,,,0.37,,2013-06-04 17:42:00,
2013-06-04 13:52:00,78.0,69.0,30.19,East,94,3.0,4.0,74,0.00,,,0.37,,2013-06-04 17:52:00,
2013-06-04 14:02:00,77.0,67.0,30.19,SSE,155,2.0,3.0,72,0.00,,,0.36,,2013-06-04 18:02:00,
2013-06-04 14:12:00,77.0,67.0,30.19,SSE,155,2.0,3.0,72,0.00,,,0.36,,2013-06-04 18:12:00,
2013-06-04 14:22:00,79.0,70.0,30.19,NE,42,0.0,1.0,74,0.00,,,0.36,,2013-06-04 18:22:00,
2013-06-04 14:32:00,79.0,67.0,30.19,NE,53,2.0,5.0,67,0.00,,,0.36,,2013-06-04 18:32:00,
2013-06-04 14:42:00,79.0,67.0,30.19,NE,53,2.0,5.0,67,0.00,,,0.36,,2013-06-04 18:42:00,
2013-06-04 14:52:00,79.0,70.0,30.18,NNE,18,0.0,0.0,73,0.00,,,0.36,,2013-06-04 18:52:00,
2013-06-04 15:02:00,80.0,68.0,30.18,NE,37,3.0,4.0,66,0.00,,,0.36,,2013-06-04 19:02:00,
2013-06-04 15:12:00,80.0,68.0,30.18,NE,37,3.0,4.0,66,0.00,,,0.36,,2013-06-04 19:12:00,
2013-06-04 15:22:00,80.0,68.0,30.17,ESE,115,5.0,6.0,66,0.00,,,0.36,,2013-06-04 19:22:00,
2013-06-04 15:32:00,81.0,69.0,30.17,NE,39,0.0,0.0,67,0.00,,,0.36,,2013-06-04 19:32:00,
2013-06-04 15:42:00,81.0,69.0,30.17,NE,39,0.0,0.0,67,0.00,,,0.36,,2013-06-04 19:42:00,
2013-06-04 15:52:00,83.0,70.0,30.17,ENE,75,3.0,4.0,65,0.00,,,0.36,,2013-06-04 19:52:00,
2013-06-04 16:03:00,81.0,69.0,30.16,NE,45,3.0,7.0,66,0.00,,,0.36,,2013-06-04 20:03:00,
2013-06-04 16:12:00,81.0,69.0,30.16,NE,45,3.0,7.0,66,0.00,,,0.36,,2013-06-04 20:12:00,
2013-06-04 16:22:00,83.0,70.0,30.17,NNE,25,1.0,6.0,64,0.00,,,0.36,,2013-06-04 20:22:00,
2013-06-04 16:32:00,81.0,68.0,30.17,NE,55,3.0,7.0,64,0.00,,,0.36,,2013-06-04 20:32:00,
2013-06-04 16:42:00,81.0,68.0,30.17,NE,55,3.0,7.0,64,0.00,,,0.36,,2013-06-04 20:42:00,
2013-06-04 16:53:00,81.0,68.0,30.17,SE,141,2.0,4.0,65,0.00,,,0.36,,2013-06-04 20:53:00,
2013-06-04 17:02:00,81.0,67.0,30.17,SSW,198,2.0,5.0,63,0.00,,,0.36,,2013-06-04 21:02:00,
2013-06-04 17:12:00,81.0,67.0,30.17,SSW,198,2.0,5.0,63,0.00,,,0.36,,2013-06-04 21:12:00,
2013-06-04 17:22:00,82.0,68.0,30.17,ESE,114,4.0,6.0,63,0.00,,,0.36,,2013-06-04 21:22:00,
2013-06-04 17:33:00,81.0,69.0,30.16,East,83,2.0,2.0,67,0.00,,,0.36,,2013-06-04 21:33:00,
2013-06-04 17:42:00,81.0,69.0,30.16,East,83,2.0,2.0,67,0.00,,,0.36,,2013-06-04 21:42:00,
2013-06-04 17:53:00,81.0,69.0,30.16,SW,231,1.0,3.0,67,0.00,,,0.35,,2013-06-04 21:53:00,
2013-06-04 18:02:00,81.0,68.0,30.16,South,177,0.0,2.0,65,0.00,,,0.35,,2013-06-04 22:02:00,
2013-06-04 18:13:00,81.0,68.0,30.16,South,177,0.0,2.0,65,0.00,,,0.35,,2013-06-04 22:13:00,
2013-06-04 18:22:00,80.0,68.0,30.16,SSE,153,2.0,4.0,67,0.00,,,0.35,,2013-06-04 22:22:00,
2013-06-04 18:32:00,79.0,68.0,30.16,NE,52,1.0,1.0,68,0.00,,,0.35,,2013-06-04 22:32:00,
2013-06-04 18:42:00,79.0,68.0,30.16,NE,52,1.0,1.0,68,0.00,,,0.35,,2013-06-04 22:42:00,
2013-06-04 18:52:00,79.0,68.0,30.16,ENE,75,0.0,1.0,70,0.00,,,0.35,,2013-06-04 22:52:00,
2013-06-04 19:02:00,79.0,69.0,30.16,East,80,0.0,0.0,72,0.00,,,0.35,,2013-06-04 23:02:00,
2013-06-04 19:12:00,79.0,69.0,30.16,East,80,0.0,0.0,72,0.00,,,0.35,,2013-06-04 23:12:00,
2013-06-04 19:22:00,78.0,69.0,30.16,NNW,339,0.0,0.0,74,0.00,,,0.35,,2013-06-04 23:22:00,
2013-06-04 19:32:00,78.0,70.0,30.16,NW,311,0.0,1.0,77,0.00,,,0.35,,2013-06-04 23:32:00,
2013-06-04 19:42:00,78.0,70.0,30.16,NW,311,0.0,1.0,77,0.00,,,0.35,,2013-06-04 23:42:00,
2013-06-04 19:52:00,77.0,70.0,30.17,East,100,1.0,2.0,80,0.00,,,0.35,,2013-06-04 23:52:00,
2013-06-04 20:02:00,76.0,70.0,30.18,NE,42,0.0,0.0,81,0.00,,,0.35,,2013-06-05 00:02:00,
2013-06-04 20:12:00,76.0,70.0,30.18,NE,42,0.0,0.0,81,0.00,,,0.35,,2013-06-05 00:12:00,
2013-06-04 20:22:00,75.0,71.0,30.18,NE,42,0.0,0.0,86,0.00,,,0.35,,2013-06-05 00:22:00,
2013-06-04 20:32:00,74.0,70.0,30.19,NE,42,0.0,0.0,88,0.00,,,0.35,,2013-06-05 00:32:00,
2013-06-04 20:42:00,74.0,70.0,30.19,NE,42,0.0,0.0,88,0.00,,,0.35,,2013-06-05 00:42:00,
2013-06-04 20:52:00,74.0,71.0,30.19,NE,42,0.0,0.0,90,0.00,,,0.35,,2013-06-05 00:52:00,
2013-06-04 21:02:00,73.0,70.0,30.20,NE,42,0.0,0.0,89,0.00,,,0.35,,2013-06-05 01:02:00,
2013-06-04 21:12:00,73.0,70.0,30.20,NE,42,0.0,0.0,89,0.00,,,0.35,,2013-06-05 01:12:00,
2013-06-04 21:22:00,73.0,69.0,30.20,NE,42,0.0,0.0,86,0.00,,,0.35,,2013-06-05 01:22:00,
2013-06-04 21:32:00,74.0,69.0,30.21,ENE,77,0.0,0.0,85,0.00,,,0.35,,2013-06-05 01:32:00,
2013-06-04 21:42:00,74.0,69.0,30.21,ENE,77,0.0,0.0,85,0.00,,,0.35,,2013-06-05 01:42:00,
2013-06-04 21:52:00,73.0,67.0,30.21,SE,132,1.0,1.0,82,0.00,,,0.35,,2013-06-05 01:52:00,
2013-06-04 22:02:00,74.0,68.0,30.21,SW,217,0.0,0.0,82,0.00,,,0.35,,2013-06-05 02:02:00,
2013-06-04 22:12:00,74.0,68.0,30.21,SW,217,0.0,0.0,82,0.00,,,0.35,,2013-06-05 02:12:00,
2013-06-04 22:22:00,74.0,69.0,30.22,SE,142,0.0,0.0,84,0.00,,,0.35,,2013-06-05 02:22:00,
2013-06-04 22:32:00,73.0,68.0,30.22,SE,142,0.0,0.0,84,0.00,,,0.35,,2013-06-05 02:32:00,
2013-06-04 22:42:00,73.0,68.0,30.22,ESE,118,0.0,1.0,84,0.00,,,0.35,,2013-06-05 02:42:00,
2013-06-04 22:52:00,73.0,68.0,30.22,ESE,118,0.0,1.0,84,0.00,,,0.35,,2013-06-05 02:52:00,
2013-06-04 23:02:00,73.0,68.0,30.23,SSE,153,0.0,0.0,83,0.00,,,0.35,,2013-06-05 03:02:00,
2013-06-04 23:12:00,73.0,68.0,30.23,SSE,153,0.0,0.0,84,0.00,,,0.35,,2013-06-05 03:12:00,
2013-06-04 23:22:00,73.0,68.0,30.23,SSE,153,0.0,0.0,84,0.00,,,0.35,,2013-06-05 03:22:00,
2013-06-04 23:33:00,73.0,68.0,30.23,WSW,250,0.0,0.0,83,0.00,,,0.35,,2013-06-05 03:33:00,
2013-06-04 23:43:00,73.0,68.0,30.23,WSW,250,0.0,0.0,83,0.00,,,0.35,,2013-06-05 03:43:00,
2013-06-04 23:53:00,73.0,69.0,30.23,SW,214,0.0,2.0,88,0.00,,,0.34,,2013-06-05 03:53:00,